Погода в Воскресенском

Россия / Ивановская область     56°41′58″N   40°57′56″E
темп.,
°C
ветер,
м/с
пор.,
м/с
влажн.,
%
обл.,
%
осадки,
мм/ч
давл.,
гПа
погр.,
м
7 мая, пт
пт700:00+10юз51089100 0.3 1007838
03:00+7юз2791100 0.4 1008218
06:00+7юз3888100 0.0 1008431
09:00+10зюз3563100 0.0 1009997
12:00+12зюз474485 0.0 10102185
15:00+12з474652 0.0 10111851
18:00+13зюз36455 0.0 10121683
21:00+7юз22695 0.0 101417
8 мая, сб
сб800:00+6ю2674100 0.0 101499
03:00+6ююв3975100 0.0 1014190
06:00+7ююв4126736 0.0 1014369
09:00+12ююв61253100 0.0 10121314
12:00+11юв61362100 0.1 10101269
15:00+11ююв71671100 0.8 10071684
18:00+9ююв61587100 2.3 10051202
21:00+9ююв61393100 2.9 1004940
9 мая, вс
вс900:00+10ююз4995100 0.4 1004739
03:00+6юз41191100 0.8 1006881
06:00+5з6994100 0.5 1006584
09:00+4зсз51194100 0.8 1011854
12:00+7зсз4879100 0.1 10151149
15:00+8зсз4768100 0.1 10181144
18:00+9сз375870 0.0 10201633
21:00+4зсз22800 0.0 102336
10 мая, пн
пн1000:00+3зсз22830 0.0 102521
03:00+2зсз22872 0.0 102833
06:00+5зсз12715 0.0 102970
09:00+12зюз22475 0.0 1030660
12:00+15зюз23355 0.0 10301759
15:00+16зюз343590 0.0 10301867
18:00+15зюз24505 0.0 1030448
21:00+9юз22765 0.0 103115
11 мая, вт
вт1100:00+7юз117262 0.0 103210
03:00+6юз227475 0.0 103217
06:00+8юз1371100 0.0 103395
09:00+15ююз234848 0.0 1033534
12:00+18ю234225 0.0 10321251
15:00+20ю124057 0.0 10311366
18:00+19ююв1255100 0.0 103068
21:00+12ююв22785 0.0 103033